User: anonymous   Login
Location: Bowman Observatory
(41.0326°N, 73.6210°W)
Time: 08:07:43
(UTC-05:00)
Language:

Cosmos 2297 - Orbit

View from above orbital plane
View from above orbital plane
View from above satellite
View from above satellite

Ground track
Ground track

The orbit data is extracted from the following two-line orbital elements,

1 23404U 94077A   15057.92792905 -.00000098  00000-0 -26947-4 0  9992
2 23404 071.0134 253.9626 0016876 337.5029 122.8041 14.13437005 45208
Epoch (UTC): 26 February 2015 22:16:13
Eccentricity: 0.0016876
inclination: 71.0134°
perigee height: 835 km
apogee height: 860 km
right ascension of ascending node: 253.9626°
argument of perigee: 337.5029°
revolutions per day: 14.13437005
mean anomaly at epoch: 122.8041°
orbit number at epoch: 4520

The dashed part of the orbit path shows where the satellite is in the earth's shadow,  

DLR